User: anonymous   Login
Location: Newark
(34.0131°N, 4.3314°W)
Time: 14:14:23
(UTC+00:00)
Language:

Vanguard 2 - Orbit

View from above orbital plane
View from above orbital plane
View from above satellite
View from above satellite

Ground track
Ground track

The orbit data is extracted from the following two-line orbital elements,

1    11U 59001A   19287.87337924 +.00000161 +00000-0 +71210-4 0  9990
2    11 032.8755 261.1537 1466930 299.4789 046.7318 11.85613930245700
Epoch (UTC): 14 October 2019 20:57:39
Eccentricity: 0.1466930
inclination: 32.8755°
perigee height: 554 km
apogee height: 2937 km
right ascension of ascending node: 261.1537°
argument of perigee: 299.4789°
revolutions per day: 11.85613930
mean anomaly at epoch: 46.7318°
orbit number at epoch: 24570

The dashed part of the orbit path shows where the satellite is in the earth's shadow,  

DLR